TimeCDT,TemperatureF,Dew PointF,Humidity,Sea Level PressureIn,VisibilityMPH,Wind Direction,Wind SpeedMPH,Gust SpeedMPH,PrecipitationIn,Events,Conditions,WindDirDegrees,DateUTC
12:34 AM,62.6,62.6,100,30.19,6.0,NNE,4.6,-,N/A,,Partly Cloudy,30,2012-10-13 05:34:00
12:53 AM,62.1,61.0,96,30.18,6.0,NNE,5.8,-,N/A,,Scattered Clouds,30,2012-10-13 05:53:00
1:01 AM,62.6,62.6,100,30.18,6.0,NNE,3.5,-,N/A,,Mostly Cloudy,30,2012-10-13 06:01:00
1:53 AM,61.0,60.1,97,30.17,6.0,Calm,Calm,-,N/A,,Mostly Cloudy,0,2012-10-13 06:53:00
2:09 AM,60.8,60.8,100,30.18,5.0,Calm,Calm,-,N/A,,Scattered Clouds,0,2012-10-13 07:09:00
2:53 AM,60.1,59.0,96,30.16,4.0,Calm,Calm,-,N/A,,Clear,0,2012-10-13 07:53:00
3:16 AM,60.8,59.0,94,30.16,2.5,Calm,Calm,-,N/A,,Mostly Cloudy,0,2012-10-13 08:16:00
3:26 AM,60.8,59.0,94,30.15,1.0,Calm,Calm,-,N/A,,Mostly Cloudy,0,2012-10-13 08:26:00
3:33 AM,59.0,59.0,100,30.15,0.5,Calm,Calm,-,N/A,Fog,Fog,0,2012-10-13 08:33:00
3:53 AM,59.0,59.0,100,30.15,1.0,Calm,Calm,-,N/A,,Overcast,0,2012-10-13 08:53:00
4:06 AM,60.8,60.8,100,30.15,1.8,Calm,Calm,-,N/A,,Overcast,0,2012-10-13 09:06:00
4:15 AM,60.8,60.8,100,30.15,2.5,Calm,Calm,-,N/A,,Overcast,0,2012-10-13 09:15:00
4:26 AM,60.8,60.8,100,30.15,3.0,Calm,Calm,-,N/A,,Overcast,0,2012-10-13 09:26:00
4:53 AM,61.0,60.1,97,30.15,1.2,Calm,Calm,-,N/A,,Overcast,0,2012-10-13 09:53:00
5:07 AM,60.8,60.8,100,30.15,0.2,Calm,Calm,-,N/A,Fog,Fog,0,2012-10-13 10:07:00
5:53 AM,61.0,61.0,100,30.15,0.2,ESE,3.5,-,N/A,Fog,Fog,120,2012-10-13 10:53:00
6:53 AM,61.0,61.0,100,30.17,0.2,Calm,Calm,-,N/A,Fog,Fog,0,2012-10-13 11:53:00
7:53 AM,62.1,62.1,100,30.17,0.2,Calm,Calm,-,N/A,Fog,Fog,0,2012-10-13 12:53:00
8:28 AM,62.6,62.6,100,30.18,1.0,South,3.5,-,N/A,,Overcast,170,2012-10-13 13:28:00
8:36 AM,62.6,62.6,100,30.18,3.0,Calm,Calm,-,N/A,,Mostly Cloudy,0,2012-10-13 13:36:00
8:43 AM,64.4,64.4,100,30.18,4.0,South,4.6,-,N/A,,Overcast,170,2012-10-13 13:43:00
8:53 AM,64.0,64.0,100,30.18,4.0,South,4.6,-,N/A,,Mostly Cloudy,180,2012-10-13 13:53:00
9:53 AM,71.1,66.9,87,30.17,9.0,SSW,12.7,18.4,N/A,,Clear,200,2012-10-13 14:53:00
10:53 AM,75.0,68.0,79,30.14,10.0,South,13.8,-,N/A,,Clear,180,2012-10-13 15:53:00
11:53 AM,78.1,68.0,71,30.12,10.0,SSW,16.1,23.0,N/A,,Scattered Clouds,200,2012-10-13 16:53:00
12:53 PM,80.1,66.9,64,30.09,10.0,SSW,13.8,-,N/A,,Mostly Cloudy,210,2012-10-13 17:53:00
1:53 PM,81.0,66.9,62,30.05,10.0,SSW,12.7,20.7,N/A,,Scattered Clouds,200,2012-10-13 18:53:00
2:53 PM,82.0,66.0,58,30.02,10.0,South,15.0,21.9,N/A,,Scattered Clouds,190,2012-10-13 19:53:00
3:53 PM,81.0,66.0,60,30.01,10.0,South,13.8,-,N/A,,Scattered Clouds,190,2012-10-13 20:53:00
4:53 PM,80.1,64.9,60,30.00,10.0,South,11.5,20.7,N/A,,Clear,190,2012-10-13 21:53:00
5:53 PM,78.1,66.0,66,29.99,10.0,South,9.2,-,N/A,,Clear,170,2012-10-13 22:53:00
7:53 PM,72.0,66.0,81,29.97,10.0,SSE,8.1,-,N/A,,Clear,150,2012-10-14 00:53:00
8:53 PM,72.0,66.0,81,29.99,10.0,SSE,8.1,-,N/A,,Clear,160,2012-10-14 01:53:00
9:53 PM,73.0,66.0,79,29.96,10.0,SSE,13.8,-,N/A,,Clear,150,2012-10-14 02:53:00
10:53 PM,73.4,66.2,78,29.96,10.0,SSE,12.7,-,N/A,,Partly Cloudy,160,2012-10-14 03:53:00
11:53 PM,73.4,66.2,78,29.93,10.0,South,13.8,23.0,N/A,,Mostly Cloudy,170,2012-10-14 04:53:00